www.pogodaiklimat.ru

Погода и климат >> Архив погоды >> Россия >> Чувашия >> Канаш


ПОГОДА в Канаше

  • Прогноз погоды в Канаше
  • Монитор погоды в Канаше

АРХИВ ПОГОДЫ в Канаше

Время (UTC), дата Ветер
(напр.,м/с)
 
Видим.   Явления Облачность Т
(С)
Тd
(С)
f
(%)
Тe
(С)
Тes
(С)
Комфортность P
(гПа)
Po
(гПа)
Тmin
(С)
Tmax
(С)
R
(мм)
R24
(мм)
S
(см)
03 14.09 Ю 5-8
{11}
20 км 9/9 600 м
[Sc]
+16.2 +4.3 45 +15 +15 1013.4 991.8 +16.0
06 14.09 Ю 6-10
{11}
20 км 9/4 600 м
[Sc Ac trans]
+20.1 +4.5 36 +20 +21 1011.3 990.1 +16.0
09 14.09 ЮЗ 7-13
{13}
20 км 9/6 600 м
[Sc Ac trans Ci fib]
+23.5 +3.5 27 +23 +24 комфорт 1009.5 988.5
12 14.09 З 7-11
{13}
20 км 10/10 600 м
[Cb calv]
+21.6 +6.5 38 +22 +22 комфорт 1009.6 988.5
15 14.09 З 5-7
{12}
20 км в посл. час ливневой дождь 10/10 600 м
[Cb cap]
+14.5 +11.2 81 +13 +13 1011.4 989.8 +24.2 0.3
18 14.09 З 4-6
{10}
10 км слаб. ливневой дождь 10/10 600 м
[Cb calv]
+12.8 +11.1 89 +11 +11 1012.0 990.2
21 14.09 З 3-5
{7}
10 км {ливн. осадки} 10/10 600 м
[Cb calv]
+11.3 +9.4 88 +9 +9 1012.4 990.5
00 15.09 З 2-3
{5}
10 км {ливн. осадки} 10/10 600 м
[Cb calv]
+9.9 +7.6 86 +8 +8 1012.3 990.3
03 15.09 З 2-3
{4}
20 км 3/3 600 м
[Sc]
+7.9 +6.4 90 +6 +6 1012.5 990.3 +7.8 2
06 15.09 З 4-6
{6}
20 км 8/8 600 м
[Cu hum]
+10.5 +7.0 79 +8 +9 1012.8 990.8
09 15.09 З 5-7
{10}
20 км 9/9 600 м
[Cb calv]
+12.8 +3.5 53 +11 +11 1012.2 990.4
12 15.09 З 4-7
{10}
20 км 8/8 600 м
[Cb calv]
+14.8 +2.5 43 +14 +14 1011.2 989.6
15 15.09 З 4-10
{10}
20 км слаб. ливневой дождь 8/8 600 м
[Cb calv]
+11.0 +3.7 61 +9 +9 1011.2 989.3 +15.6 0.4
18 15.09 ЮЗ 4-5
{10}
10 км {ливн. осадки} ясно +7.4 +3.1 74 +4 +4 1011.3 989.1
21 15.09 Ю 3-5
{6}
10 км 9/0
[Ci fib]
+7.5 +3.4 75 +5 +5 1009.8 987.6
00 16.09 ЮЗ 6-9
{9}
10 км 10/10 600 м
[Sc]
+7.5 +3.5 76 +3 +3 1008.5 986.4
03 16.09 Ю 4-6
{9}
20 км в посл. час ливневой дождь 10/10 600 м
[Cb calv]
+7.3 +4.2 81 +4 +4 1005.4 983.3 +7.2 0.0
06 16.09 ЮЗ 6-10
{13}
500 м {ливн. осадки} 10/10 600 м
[Cb calv]
+8.7 +5.3 79 +5 +5 1002.6 980.7
09 16.09 ЮЗ 6-10
{10}
20 км слаб. ливневой дождь 10/10 600 м
[Cb calv]
+9.3 +6.8 84 +6 +6 1000.6 978.8
12 16.09 ЮЗ 5-9
{11}
20 км слаб. ливневой дождь 10/10 600 м
[Cb calv]
+9.4 +7.1 86 +6 +6 998.9 977.1
15 16.09 ЮЗ 6-9
{10}
20 км {ливн. осадки} 10/10 600 м
[Cb calv]
+10.0 +7.8 86 +7 +7 998.2 976.5 +10.0 2
18 16.09 ЮЗ 7-10
{12}
10 км {ливн. осадки} 9/6 600 м
[Sc Ac trans Ci fib]
+9.6 +7.5 87 +6 +6 998.4 976.7
21 16.09 ЮЗ 6-9
{11}
10 км 3/0
[Ci fib]
+8.7 +6.7 87 +5 +5 998.1 976.3
00 17.09 ЮЗ 5-8
{10}
10 км ясно +8.5 +5.8 83 +5 +5 998.0 976.2
03 17.09 Ю 4-6
{8}
20 км 6/5 600 м
[Sc Ci fib]
+8.1 +5.8 85 +5 +5 997.9 976.1 +7.7
06 17.09 ЮЗ 6-9
{10}
20 км 9/3 600 м
[Sc Ci fib]
+10.8 +6.9 77 +8 +9 997.7 976.1
09 17.09 ЮЗ 9-12
{13}
20 км 9/9 600 м
[Cb calv]
+14.4 +6.4 59 +12 +12 997.3 976.0
12 17.09 З 7-11
{13}
20 км 9/3 600 м
[Sc Ci fib]
+14.7 +4.8 51 +13 +13 996.9 975.6
15 17.09 З 4-6
{11}
20 км в посл. час ливневой дождь 10/10 600 м
[]
+10.5 +6.9 78 +8 +8 997.8 976.1 +16.1 0.3
18 17.09 ЮЗ 6-8
{12}
10 км {ливн. осадки} 3/0
[Ci fib]
+8.7 +3.9 72 +5 +5 998.3 976.5
21 17.09 ЮЗ 5-7
{9}
10 км ясно +8.0 +3.5 73 +4 +4 998.4 976.6
00 18.09 Ю 3-5
{8}
10 км 3/0
[Ac trans]
+6.5 +3.2 79 +3 +3 999.1 977.1
03 18.09 ЮЗ 3-4
{7}
20 км 10/10 600 м
[Sc]
+6.3 +3.7 83 +3 +3 999.9 977.9 +5.8 0.3
06 18.09 ЮЗ 2-4
{7}
20 км 9/9 600 м
[Sc]
+9.1 +5.3 77 +7 +8 1000.3 978.5
09 18.09 ЮЗ 6-9
{10}
20 км 10/10 600 м
[Cu Sc]
+11.6 +4.8 63 +9 +9 1000.5 978.8
12 18.09 ЮЗ 4-6
{9}
20 км 10/10 600 м
[Cb calv]
+11.7 +5.6 66 +10 +10 1000.2 978.6
15 18.09 Ю 3-4
{14}
20 км {ливн. осадки} 3/0
[Ci fib]
+9.4 +4.2 70 +7 +7 999.8 978.0 +12.1 0.0
18 18.09 ЮВ 3-4
{5}
10 км {ливн. осадки} ясно +7.0 +3.7 79 +4 +4 998.7 976.8
21 18.09 ЮВ 3-4
{5}
10 км 9/3 600 м
[Sc Ci fib]
+6.5 +3.8 83 +3 +3 996.4 974.4
00 19.09 С 1-2
{4}
10 км 9/9 600 м
[Sc]
+4.1 +2.7 91 +3 +3 994.5 972.4
03 19.09 штиль 0
{3}
500 м ?/? +1.6 +0.7 94 0 0 995.0 972.7 +1.6
06 19.09 СЗ 4-6
{6}
20 км {туман} 10/10 600 м
[Cb calv]
+8.5 +5.8 83 +5 +5 997.2 975.4
09 19.09 С 6-8
{9}
20 км 9/9 600 м
[Sc]
+10.9 +4.6 65 +2 +2 1000.5 978.9
12 19.09 З 8-12
{12}
20 км 9/9 600 м
[Cb calv]
+10.3 +3.7 64 +7 +7 1003.6 981.8
15 19.09 З 3-3
{10}
20 км {ливн. осадки} 8/8 600 м
[Cb calv]
+7.5 +4.5 81 +5 +5 1006.4 984.3 +12.5 0.3
18 19.09 З 3-4
{6}
10 км {ливн. осадки} 9/9 600 м
[Cb calv]
+7.2 +4.9 85 +4 +4 1008.4 986.3
21 19.09 З 3-4
{6}
10 км {ливн. осадки} 10/10 600 м
[Sc]
+6.7 +5.2 90 +4 +4 1009.7 987.5
00 20.09 З 1-2
{5}
10 км {ливн. осадки} 9/9 600 м
[Sc]
+5.8 +4.3 90 +5 +5 1011.3 989.0
03 20.09 ЮЗ 1-2
{3}
20 км 9/8 600 м
[Sc Ac trans]
+4.9 +3.6 91 +4 +4 1012.4 990.0 +4.5 0.4
06 20.09 З 2-2
{3}
20 км 10/10 600 м
[Cb calv]
+6.6 +4.4 86 +4 +4 1013.3 991.1
09 20.09 Ю 1-2
{3}
20 км в посл. час ливневой дождь 10/10 600 м
[Cb calv]
+8.4 +3.9 73 +8 +8 1013.1 990.9
12 20.09 Ю 2-3
{4}
20 км {ливн. осадки} 10/10 600 м
[Cb calv]
+9.5 +3.9 68 +8 +8 1012.1 990.1
15 20.09 ЮВ 3-4
{5}
20 км в посл. час ливневой дождь 10/10 600 м
[Cb calv]
+7.7 +5.5 86 +5 +5 1011.5 989.3 +9.6 0.4
18 20.09 Ю 3-4
{7}
10 км {ливн. осадки} 4/4 600 м
[Sc]
+6.0 +4.1 88 +3 +3 1011.3 989.0
21 20.09 З 4-6
{7}
10 км 10/10 600 м
[Cb calv]
+5.3 +3.7 89 +1 +1 1010.9 988.6
00 21.09 З 3-5
{7}
10 км 10/10 600 м
[Cb calv]
+5.0 +3.5 90 +1 +1 1011.0 988.6

 

Местоположение метеостанции Канаш (Чувашия, Россия): широта 55.52 долгота 47.47 высота над уровнем моря 183 м.

В архиве по умолчанию представлена погода в Канаше за последнюю неделю. Архивные данные за месяц целиком и за предыдущие месяцы, начиная с января 2011 года, Вы можете получить, выбрав интересующий диапазон дат из раскрывающегося списка и нажав кнопку "Ввод!".


*Определитесь, кто Вы:
робот инопланетянин человек

Внимание! Время в таблицах - всемирное. Для получения местного времени необходимо прибавить поправку, которая равна 3 ч.

Смотрите также архив погоды в соседних городах и на ближайших метеорологических станциях:

Погода в Больших Кайбицах (Татарстан, Россия) (47 км)
Погода в Батырево (Чувашия, Россия) (51 км)
Погода в Чебоксарах (Чувашия, Россия) (63 км)
Погода в Вязовых (Татарстан, Россия) (74 км)
Погода в Порецком (Чувашия, Россия) (81 км)
Погода в Дрожжаном (Татарстан, Россия) (89 км)
Погода в Алатыре (Чувашия, Россия) (96 км)
Погода в Тетюшах (Татарстан, Россия) (105 км)
Погода в Козьмодемьянске (Марий-Эл, Россия) (106 км)
Погода в Казани (Татарстан, Россия) (111 км)

Пояснения к столбцам:

Ветер - указаны скорость ветра в м/с - средняя за 10 мин, порывы в срок и между сроками (в фигурных скобках) и направление, откуда дует ветер: С - северный, СВ - северо-восточный, В - восточный, ЮВ - юго-восточный, Ю - южный, ЮЗ - юго-западный, З - западный, СЗ - северо-западный.
Видимость - горизонтальная дальность видимости в метрах или километрах. При видимости от 1 до 10 км при отсутствии осадков обычно наблюдается дымка, при ухудшении видимости до 1 км и менее - туман. В сухую погоду видимость может ухудшаться дымом, пылью или мглою.
Явления - указаны атмосферные явления, наблюдавшиеся в срок или в последний час перед сроком; фигурными скобками обозначены явления, наблюдавшиеся между сроками (за 1-3 часа до срока); квадратными скобками обозначены град или гололедные отложения с указанием их диаметра в мм.
Облачность - указаны через наклонную черту общая и нижняя облачность в баллах и высота нижней границы облаков в метрах; квадратными скобками обозначены формы облаков: Ci - перистые, Cs - перисто-слоистые, Cc - перисто-кучевые, Ac - высококучевые, As - высокослоистые, Sc - слоисто-кучевые, Ns - слоисто-дождевые, Cu - кучевые, Cb - кучево-дождевые. Подробнее классификацию облаков см. в Атласе облаков (PDF).
T - Температура воздуха - температура, измеренная на высоте 2 м над землей.
Td - Температура точки росы - температура, при понижении до которой содержащийся в воздухе водяной пар достигнет насыщения.
f - Относительная влажность воздуха - влажноcть воздуха, измеренная на высоте 2 м над землей.
Te - Эффективная температура - температура, которую ощущает одетый по сезону человек в тени. Характеристика душности погоды. При расчете учитывается влияние влажности воздуха и скорости ветра на теплоощущения человека.
Tes - Эффективная температура на солнце - температура, которую ощущает человек, с поправкой на солнечный нагрев. Характеристика знойности погоды. Зависит от высоты солнца над горизонтом, облачности и скорости ветра. Ночью, в пасмурную погоду, а также при ветре 12 м/с и более поправка равна нулю.
P - Атмосферное давление - приведенное к уровню моря атмосферное давление.
Po - Атмосферное давление - измеренное на уровне метеостанции атмосферное давление.
Tmin - Минимальная температура - минимум температуры воздуха на высоте 2 м над землей.
Tmax - Максимальная температура - максимум температуры воздуха на высоте 2 м над землей.
R - Количество осадков - Количество выпавших осадков за период времени, мм. При наведении курсора мыши на число - период времени, за который выпало указанное количество осадков.
R24 - Количество осадков - Количество выпавших осадков за 24 часа, мм.
S - Снежный покров - Высота снежного покрова, см. При наведении курсора мыши на число - состояние снежного покрова и степень покрытия местности в баллах.